Alturas, CA

12:49 PM PST on December 05, 2019 (GMT -0800)
Alturas Municipal

Weather History for KAAT - November, 2019

Change the Weather History Date:

Tuesday, November 12, 2019

  Actual Average Record
Temperature  
Mean Temperature 46 °F 37 °F  
Max Temperature 67 °F 51 °F 73 °F (1956)
Min Temperature 26 °F 24 °F -17 °F (1985)
Degree Days  
Heating Degree Days 18 28  
Month to date heating degree days 245 309  
Since 1 July heating degree days 1253 1252  
Cooling Degree Days 0 0  
Month to date cooling degree days 0 0  
Year to date cooling degree days 217 156  
Moisture  
Dew Point 31 °F    
Average Humidity 71    
Maximum Humidity 92    
Minimum Humidity 34    
Precipitation  
Precipitation 0.00 in 0.06 in 0.88 in (1968)
Month to date precipitation 0.00 0.74  
Year to date precipitation 12.54 11.41  
Sea Level Pressure  
Sea Level Pressure 30.19 in    
Wind  
Wind Speed 2 mph ()    
Max Wind Speed 16 mph    
Max Gust Speed 21 mph    
Visibility 9.7 miles    
Events      
T = Trace of Precipitation, MM = Missing Value Source: Averaged Metar Reports

Daily Weather History Graph

Daily Weather History Graph

Search for Another Location

Airport or City:

Astronomy

Nov. 12, 2019 Rise Set
Actual Time 6:47 AM PST 4:45 PM PST
Civil Twilight 6:17 AM PST 5:14 PM PST
Nautical Twilight 5:44 AM PST 5:48 PM PST
Astronomical Twilight 5:11 AM PST 6:20 PM PST
Moon 5:15 PM PST (11/12) 6:43 AM PST (11/12)
Length of Visible Light 10h 57m
Length of Day
9h 58m
Full, 100% of the Moon is Illuminated
Nov 12
Full
Nov 19
Last Quarter
Nov 26
New
Dec 3
First Quarter
Dec 11
Full

Hourly Weather History & Observations

Time (PST) Temp. Windchill Dew Point Humidity Pressure Visibility Wind Dir Wind Speed Gust Speed Precip Events Conditions
12:55 AM 30.9 °F - 27.0 °F 85% 30.22 in 10.0 mi Calm Calm - N/A   Clear
1:55 AM 30.9 °F - 28.9 °F 92% 30.21 in 9.0 mi Calm Calm - N/A   Clear
2:55 AM 28.9 °F 25.2 °F 26.1 °F 89% 30.20 in 10.0 mi NW 3.5 mph - N/A   Clear
3:55 AM 28.0 °F - 25.0 °F 88% 30.18 in 10.0 mi Calm Calm - N/A   Clear
4:55 AM 28.9 °F - 26.1 °F 89% 30.20 in 10.0 mi Calm Calm - N/A   Clear
5:55 AM 28.0 °F 24.2 °F 26.1 °F 92% 30.21 in 10.0 mi NW 3.5 mph - N/A   Clear
6:55 AM 28.9 °F 23.9 °F 27.0 °F 92% 30.23 in 10.0 mi NW 4.6 mph - N/A   Clear
7:55 AM 33.1 °F - 30.9 °F 92% 30.25 in 10.0 mi Calm Calm - N/A   Clear
8:55 AM 37.9 °F - 32.0 °F 79% 30.24 in 10.0 mi Calm Calm - N/A   Clear
9:55 AM 48.9 °F - 34.0 °F 56% 30.22 in 10.0 mi Calm Calm - N/A   Clear
10:55 AM 53.1 °F - 35.1 °F 50% 30.21 in 10.0 mi NW 3.5 mph - N/A   Clear
11:55 AM 57.0 °F - 35.1 °F 44% 30.19 in 10.0 mi Calm Calm - N/A   Clear
12:55 PM 62.1 °F - 36.0 °F 38% 30.16 in 10.0 mi WNW 8.1 mph - N/A   Clear
1:55 PM 64.9 °F - 36.0 °F 34% 30.12 in 10.0 mi Variable 5.8 mph - N/A   Clear
2:55 PM 64.0 °F - 35.1 °F 34% 30.14 in 10.0 mi West 12.7 mph - N/A   Clear
3:55 PM 62.1 °F - 36.0 °F 38% 30.14 in 10.0 mi WNW 9.2 mph - N/A   Clear
5:55 PM 50.0 °F - 34.0 °F 54% 30.17 in 10.0 mi NNW 3.5 mph - N/A   Clear
6:55 PM 46.0 °F 42.5 °F 34.0 °F 63% 30.19 in 9.0 mi East 6.9 mph - N/A   Clear
7:55 PM 39.0 °F - 30.9 °F 73% 30.20 in 10.0 mi Calm Calm - N/A   Clear
8:55 PM 36.0 °F - 30.0 °F 79% 30.20 in 7.0 mi Calm Calm - N/A   Clear
9:55 PM 32.0 °F - 28.0 °F 85% 30.19 in 8.0 mi Calm Calm - N/A   Clear
10:55 PM 30.0 °F - 27.0 °F 88% 30.18 in 10.0 mi Calm Calm - N/A   Clear
11:55 PM 30.0 °F - 28.0 °F 92% 30.17 in 10.0 mi Calm Calm - N/A   Clear